www.pogodaiklimat.ru

Погода и климат >> Архив погоды >> Казахстан >> Алматы


АРХИВ ПОГОДЫ в Алматы

Время (UTC), дата Ветер
(напр.,м/с)
 
Видим.   Явления Облачность Т
(С)
Тd
(С)
f
(%)
Тe
(С)
Тes
(С)
Комфортность P
(гПа)
Po
(гПа)
Тmin
(С)
Tmax
(С)
R
(мм)
R24
(мм)
S
(см)
15 13.08 С 1 н/о ясно +22.8 +9.6 43 +24 +24 комфорт 1011.0 918.0 +28.1
18 13.08 Ю 1 н/о ясно +19.1 +11.0 59 +21 +21 комфорт 1011.9 917.8 +28.1
21 13.08 штиль 0 н/о ясно +17.0 +9.5 61 +17 +17 прохладно 1011.8 917.0
00 14.08 штиль 0
{4}
10 км ясно +15.1 +9.7 70 +15 +15 прохладно 1012.3 917.0
03 14.08 штиль 0 20 км ясно +22.0 +10.8 49 +24 +33 комфорт 1010.8 917.7
06 14.08 штиль 0 20 км ясно +25.4 +10.8 40 +26 +48 жарко 1009.3 917.3 +15.1
09 14.08 З 1 10 км ясно +27.8 +10.3 34 +28 +43 жарко 1007.3 916.2
12 14.08 СВ 1 10 км ясно +26.8 +9.8 34 +27 +30 жарко 1007.0 915.6
15 14.08 ЮВ 1 н/о ясно +23.4 +10.5 44 +25 +25 комфорт 1008.6 916.1 +28.2
18 14.08 С 1 н/о ясно +21.8 +11.6 52 +24 +24 комфорт 1008.9 915.9 +28.2
21 14.08 ЮВ 1 н/о ясно +19.6 +11.2 58 +22 +22 комфорт 1009.0 915.3
00 15.08 штиль 0
{4}
10 км ясно +18.8 +10.2 57 +19 +19 по сезону 1009.5 915.6
03 15.08 штиль 0 20 км ясно +24.2 +11.6 45 +26 +34 жарко 1007.4 915.3
06 15.08 штиль 0 20 км 1/1 1000 м
[Cu hum]
+29.4 +11.6 33 +30 +49 жарко 1004.9 914.5 +18.0
09 15.08 С 1 20 км 3/3 1000 м
[Cu med, cong Ac trans Ci fib]
+32.4 +12.2 29 +33 +43 жарко 1003.4 914.0
12 15.08 штиль 0 10 км 3/3 1000 м
[Cu med, cong Ac trans]
+30.9 +14.2 36 +33 +35 душно 1003.5 913.8
15 15.08 штиль 0 н/о 3/0
[Ac lent Ci fib]
+26.7 +15.8 51 +30 +30 душно 1005.8 914.7 +32.8
18 15.08 штиль 0 н/о 3/0
[Ci fib]
+26.3 +12.9 43 +28 +28 жарко 1005.6 914.3 +32.8
21 15.08 штиль 0 н/о 6/0
[Ci fib]
+24.3 +10.6 42 +25 +25 комфорт 1005.4 913.5
00 16.08 штиль 0
{3}
10 км 10/3 1000 м
[Cu med, cong Ci fib]
+22.7 +8.6 40 +24 +24 комфорт 1006.2 913.7
03 16.08 штиль 0 20 км ясно +28.4 +13.2 39 +30 +38 жарко 1004.3 913.7
06 16.08 штиль 0 20 км 1/1 1000 м
[Cu hum]
+32.7 +11.2 27 +33 +52 опасность
солнечного
удара
1002.6 913.3 +22.5
09 16.08 штиль 0 10 км 5/5 1000 м
[Cu med, cong]
+33.6 +11.9 27 +34 +42 очень
жарко
1001.5 912.6
12 16.08 С 1 10 км 4/3 1000 м
[Cu med, cong Ci fib]
+33.7 +10.4 24 +33 +35 жарко 1001.4 912.5
15 16.08 штиль 0 н/о слабый ливневой дождь 10/10 600 м
[Cb cap]
+29.6 +10.9 31 +30 +30 жарко 1005.2 914.8 +35.2
18 16.08 штиль 0 н/о в посл. час гроза {ливн. осадки} 10/10 600 м
[Cb cap]
+27.8 +10.6 34 +28 +28 жарко 1006.4 915.4 +35.2 0.0
21 16.08 ЮВ 1 н/о {гроза} 8/8 600 м
[Cb cap Ac As]
+24.2 +10.9 43 +25 +25 комфорт 1007.5 915.3
00 17.08 ЮЗ 1
{5}
10 км {гроза} ясно +23.5 +9.7 42 +25 +25 комфорт 1007.3 914.9
03 17.08 штиль 0 20 км ясно +27.8 +12.2 38 +29 +37 жарко 1006.5 915.5
06 17.08 штиль 0 20 км 1/1 1000 м
[Cu hum]
+32.3 +8.7 23 +31 +50 жарко 1004.9 915.2 +23.5 0.0
09 17.08 С 1 20 км 1/1 1000 м
[Cu hum]
+33.6 +8.3 21 +32 +45 жарко 1002.8 913.7
12 17.08 С 1 10 км 10/3 1000 м
[Cu hum Ci fib]
+31.2 +10.0 27 +31 +32 жарко 1002.9 913.1
15 17.08 штиль 0 н/о 10/0
[Ci fib]
+27.8 +8.3 29 +28 +28 жарко 1005.7 914.7 +33.8
18 17.08 штиль 0 н/о 8/0
[Ac trans Ci fib]
+22.6 +11.4 49 +25 +25 комфорт 1007.0 914.4 +33.8
21 17.08 штиль 0 н/о 10/0
[Ci fib]
+21.2 +10.4 50 +23 +23 комфорт 1005.5 912.7
00 18.08 штиль 0
{5}
10 км 10/4 600 м
[Cb cap Ci fib]
+20.6 +10.6 53 +22 +22 комфорт 1005.1 912.1
03 18.08 С 1 10 км 10/0
[Ac lent Cc]
+24.6 +7.7 34 +25 +29 комфорт 1003.3 911.6
06 18.08 В 1 10 км в посл. час ливневой дождь 10/10 600 м
[Cb cap]
+25.9 +7.9 32 +26 +26 жарко 1002.4 911.2 +20.2
09 18.08 С 2 10 км в посл. час ливневой дождь 10/10 600 м
[Cb cap]
+24.2 +11.8 46 +26 +26 жарко 1003.2 911.5
12 18.08 ЮЗ 1 10 км в посл. час ливневой дождь 10/10 600 м
[Cb cap]
+25.4 +11.0 40 +26 +26 жарко 1003.4 912.0
15 18.08 штиль 0 н/о {ливн. осадки} 10/3 600 м
[Cb cap Ci fib]
+23.9 +12.7 49 +26 +26 жарко 1003.6 911.7 +27.8
18 18.08 штиль 0 н/о {ливн. осадки} 6/0
[Ci fib]
+20.1 +10.5 54 +21 +21 комфорт 1004.8 911.6 +27.8 0.0
21 18.08 З 1 н/о ясно +20.3 +6.9 42 +22 +22 комфорт 1003.4 910.4
00 19.08 штиль 0
{5}
10 км ясно +18.4 +8.8 54 +19 +19 тепло 1004.6 911.0
03 19.08 С 1 10 км ясно +27.0 +12.6 41 +29 +36 жарко 1002.5 911.7
06 19.08 С 1 10 км 1/1 1000 м
[Cu hum]
+30.6 +11.0 30 +31 +47 жарко 1001.3 911.6 +18.4
09 19.08 СВ 1 10 км 4/3 1000 м
[Cu med, cong Ac trans Ci fib]
+31.0 +7.0 22 +30 +39 жарко 1000.6 910.9
12 19.08 С 1 10 км 3/3 1000 м
[Cu med, cong Ci fib]
+30.6 +9.3 27 +30 +32 жарко 1000.2 910.5
15 19.08 штиль 0 н/о 6/3 1000 м
[Cu med, cong Ci fib]
+25.9 +12.4 43 +27 +27 жарко 1003.7 912.5 +32.2
18 19.08 штиль 0 н/о 8/0
[Ci fib]
+23.4 +8.7 39 +25 +25 комфорт 1003.6 911.5 +32.2
21 19.08 ЮВ 1 н/о 10/0
[Ci fib]
+25.4 +5.7 28 +25 +25 комфорт 1002.6 911.1
00 20.08 штиль 0
{5}
10 км ясно +22.7 +7.9 39 +24 +24 комфорт 1003.0 910.8
03 20.08 штиль 0 20 км ясно +29.0 +11.2 33 +30 +37 жарко 1002.1 911.8
06 20.08 З 1 20 км ясно +32.5 +11.9 28 +33 +51 опасность
солнечного
удара
1000.4 911.3 +20.5
09 20.08 СЗ 1 10 км 1/1 1000 м
[Cu hum]
+34.9 +9.6 21 +34 +47 очень
жарко
998.7 910.3

 

Местоположение метеостанции Алматы (Алматинская область, Казахстан): широта 43.23 долгота 76.93 высота над уровнем моря 851 м.

В архиве по умолчанию представлена погода в Алматы за последнюю неделю. Архивные данные за месяц целиком и за предыдущие месяцы, начиная с января 2011 года, Вы можете получить, выбрав интересующий диапазон дат из раскрывающегося списка и нажав кнопку "Ввод!".


*Определитесь, кто Вы:
робот инопланетянин человек

Внимание! Время в таблицах - всемирное. Для получения местного времени необходимо прибавить поправку, которая в Алматы равна 6 ч.

Смотрите также архив погоды в соседних городах и на ближайших метеорологических станциях:

Погода в Алматы АМС (Алматинская область, Казахстан) (4 км)
Погода в Каменском плато (Алматинская область, Казахстан) (6 км)
Погода в Медеу (Алматинская область, Казахстан) (12 км)
Погода в Карасайском (Алматинская область, Казахстан) (15 км)
Погода в Шымбулаке (Алматинская область, Казахстан) (16 км)
Погода в Большом Алматинском озере (Алматинская область, Казахстан) (18 км)
Погода в Альмереке (Алматинская область, Казахстан) (21 км)
Погода в Коныролене (Алматинская область, Казахстан) (24 км)
Погода в Рыскулово (Алматинская область, Казахстан) (30 км)
Погода в Илийском (Алматинская область, Казахстан) (33 км)

Пояснения к столбцам:

Ветер - указаны скорость ветра в м/с - средняя за 10 мин, порывы в срок и между сроками (в фигурных скобках) и направление, откуда дует ветер: С - северный, СВ - северо-восточный, В - восточный, ЮВ - юго-восточный, Ю - южный, ЮЗ - юго-западный, З - западный, СЗ - северо-западный.
Видимость - горизонтальная дальность видимости в метрах или километрах. При видимости от 1 до 10 км при отсутствии осадков обычно наблюдается дымка, при ухудшении видимости до 1 км и менее - туман. В сухую погоду видимость может ухудшаться дымом, пылью или мглою.
Явления - указаны атмосферные явления, наблюдавшиеся в срок или в последний час перед сроком; фигурными скобками обозначены явления, наблюдавшиеся между сроками (за 1-3 часа до срока); квадратными скобками обозначены град или гололедные отложения с указанием их диаметра в мм.
Облачность - указаны через наклонную черту общая и нижняя облачность в баллах и высота нижней границы облаков в метрах; квадратными скобками обозначены формы облаков: Ci - перистые, Cs - перисто-слоистые, Cc - перисто-кучевые, Ac - высококучевые, As - высокослоистые, Sc - слоисто-кучевые, Ns - слоисто-дождевые, Cu - кучевые, Cb - кучево-дождевые. Подробнее классификацию облаков см. в Атласе облаков (PDF).
T - Температура воздуха - температура, измеренная на высоте 2 м над землей.
Td - Температура точки росы - температура, при понижении до которой содержащийся в воздухе водяной пар достигнет насыщения.
f - Относительная влажность воздуха - влажноcть воздуха, измеренная на высоте 2 м над землей.
Te - Эффективная температура - температура, которую ощущает одетый по сезону человек в тени. Характеристика душности погоды. При расчете учитывается влияние влажности воздуха и скорости ветра на теплоощущения человека.
Tes - Эффективная температура на солнце - температура, которую ощущает человек, с поправкой на солнечный нагрев. Характеристика знойности погоды. Зависит от высоты солнца над горизонтом, облачности и скорости ветра. Ночью, в пасмурную погоду, а также при ветре 12 м/с и более поправка равна нулю.
P - Атмосферное давление - приведенное к уровню моря атмосферное давление.
Po - Атмосферное давление - измеренное на уровне метеостанции атмосферное давление.
Tmin - Минимальная температура - минимум температуры воздуха на высоте 2 м над землей.
Tmax - Максимальная температура - максимум температуры воздуха на высоте 2 м над землей.
R - Количество осадков - Количество выпавших осадков за период времени, мм. При наведении курсора мыши на число - период времени, за который выпало указанное количество осадков.
R24 - Количество осадков - Количество выпавших осадков за 24 часа, мм.
S - Снежный покров - Высота снежного покрова, см. При наведении курсора мыши на число - состояние снежного покрова и степень покрытия местности в баллах.